Terminal Aerodrome Forecast
Issued by NWS

Home | Current Version | Previous Version | Text Only | Print | Product List | Glossary On
Versions: 1 2 3 4 5 6 7 8 9 10 11 12 13 14 15 16 17 18 19 20
000
FTUS44 KTSA 201100
TAFFYV
TAF
KFYV 201120Z 2012/2112 23003KT 4SM BR OVC008
      TEMPO 2012/2015 1SM BR OVC005
     FM201800 20005KT P6SM OVC015
     FM202200 19004KT P6SM BKN025
     FM210900 17003KT 4SM BR OVC015=

USA.gov is the U.S. government's official web portal to all federal, state and local government web resources and services.